| time (UTC) | temp F | wind direction | speed MPH | gust MPH | rain 1hr in | rain 24hr in | rain mn in | humidity % | barometer mb |
| 20260506050956 | 61 | 155 | 1.0 | 5.0 | 0.00 | 0.00 | 0.00 | 60 | 1011.2 |
| 20260506044935 | 62 | 155 | 0.0 | 0.0 | 0.00 | 0.00 | 0.00 | 60 | 1011.1 |
| 20260506043939 | 62 | 155 | 0.0 | 0.0 | 0.00 | 0.00 | 0.00 | 61 | 1011.1 |
| 20260506042945 | 62 | 155 | 0.0 | 0.0 | 0.00 | 0.00 | 0.00 | 60 | 1011.0 |
| 20260506041931 | 62 | 155 | 0.0 | 0.0 | 0.00 | 0.00 | 0.00 | 60 | 1010.9 |
| 20260506040934 | 63 | 155 | 0.0 | 0.0 | 0.00 | 0.00 | 0.00 | 61 | 1010.8 |
| 20260506035937 | 63 | 155 | 0.0 | 0.0 | 0.00 | 0.00 | 0.00 | 60 | 1010.7 |
| 20260506034943 | 64 | 155 | 0.0 | 0.0 | 0.00 | 0.00 | 0.00 | 59 | 1010.7 |
| 20260506034004 | 65 | 155 | 0.0 | 0.0 | 0.00 | 0.00 | 0.00 | 58 | 1010.5 |
| 20260506032930 | 66 | 155 | 0.0 | 0.0 | 0.00 | 0.00 | 0.00 | 56 | 1010.4 |
| 20260506031932 | 68 | 155 | 0.0 | 0.0 | 0.00 | 0.00 | 0.00 | 54 | 1010.3 |
| 20260506030935 | 71 | 155 | 0.0 | 0.0 | 0.00 | 0.00 | 0.00 | 51 | 1010.2 |
| 20260506025939 | 74 | 155 | 0.0 | 0.0 | 0.00 | 0.00 | 0.00 | 47 | 1010.2 |
| 20260506023946 | 78 | 155 | 0.0 | 0.0 | 0.00 | 0.00 | 0.00 | 45 | 1010.2 |
| 20260506022945 | 80 | 155 | 0.0 | 0.0 | 0.00 | 0.00 | 0.00 | 44 | 1010.2 |
| 20260506021947 | 81 | 155 | 0.0 | 0.0 | 0.00 | 0.00 | 0.00 | 44 | 1010.1 |
| 20260506020946 | 81 | 155 | 0.0 | 0.0 | 0.00 | 0.00 | 0.00 | 43 | 1010.1 |
| 20260506015942 | 82 | 155 | 0.0 | 0.0 | 0.00 | 0.00 | 0.00 | 43 | 1010.1 |
| 20260506014944 | 82 | 155 | 0.0 | 0.0 | 0.00 | 0.00 | 0.00 | 44 | 1010.1 |
| 20260506013927 | 83 | 155 | 1.0 | 4.0 | 0.00 | 0.00 | 0.00 | 42 | 1010.1 |
| 20260506012934 | 83 | 155 | 0.0 | 0.0 | 0.00 | 0.00 | 0.00 | 44 | 1010.0 |
| 20260506011937 | 83 | 155 | 0.0 | 0.0 | 0.00 | 0.00 | 0.00 | 42 | 1009.9 |
| 20260506010943 | 83 | 155 | 0.0 | 0.0 | 0.00 | 0.00 | 0.00 | 45 | 1009.9 |
| 20260506010005 | 82 | 155 | 0.0 | 0.0 | 0.00 | 0.00 | 0.00 | 42 | 1009.9 |
| 20260506004931 | 82 | 155 | 0.0 | 0.0 | 0.00 | 0.00 | 0.00 | 39 | 1010.0 |
| 20260506003934 | 82 | 155 | 0.0 | 0.0 | 0.00 | 0.00 | 0.00 | 43 | 1010.0 |
| 20260506002936 | 82 | 155 | 0.0 | 0.0 | 0.00 | 0.00 | 0.00 | 43 | 1010.0 |
| 20260506001938 | 82 | 155 | 0.0 | 3.0 | 0.00 | 0.00 | 0.00 | 41 | 1010.0 |
| 20260506000944 | 82 | 155 | 0.0 | 0.0 | 0.00 | 0.00 | 0.00 | 41 | 1010.0 |
| 20260505235934 | 81 | 155 | 0.0 | 0.0 | 0.00 | 0.00 | 0.00 | 40 | 1010.1 |
| 20260505234936 | 80 | 155 | 0.0 | 9.0 | 0.00 | 0.00 | 0.00 | 46 | 1010.1 |
| 20260505233941 | 81 | 155 | 0.0 | 3.0 | 0.00 | 0.00 | 0.00 | 45 | 1010.2 |
| 20260505232940 | 81 | 155 | 0.0 | 0.0 | 0.00 | 0.00 | 0.00 | 44 | 1010.2 |
| 20260505231941 | 81 | 155 | 0.0 | 0.0 | 0.00 | 0.00 | 0.00 | 45 | 1010.3 |
| 20260505230941 | 80 | 155 | 0.0 | 5.0 | 0.00 | 0.00 | 0.00 | 46 | 1010.4 |
| 20260505225943 | 80 | 155 | 0.0 | 0.0 | 0.00 | 0.00 | 0.00 | 46 | 1010.5 |
| 20260505224942 | 80 | 155 | 1.0 | 5.0 | 0.00 | 0.00 | 0.00 | 46 | 1010.5 |
| 20260505223929 | 80 | 155 | 3.0 | 5.0 | 0.00 | 0.00 | 0.00 | 45 | 1010.6 |
| 20260505222932 | 79 | 155 | 0.0 | 8.0 | 0.00 | 0.00 | 0.00 | 44 | 1010.7 |
| 20260505221935 | 79 | 155 | 0.0 | 0.0 | 0.00 | 0.00 | 0.00 | 46 | 1010.8 |
| 20260505220938 | 78 | 155 | 0.0 | 7.0 | 0.00 | 0.00 | 0.00 | 50 | 1010.9 |
| 20260505215928 | 77 | 155 | 0.0 | 7.0 | 0.00 | 0.00 | 0.00 | 48 | 1010.8 |
| 20260505214934 | 78 | 155 | 3.0 | 10.0 | 0.00 | 0.00 | 0.00 | 50 | 1011.0 |
| 20260505213936 | 77 | 155 | 0.0 | 0.0 | 0.00 | 0.00 | 0.00 | 50 | 1011.0 |
| 20260505212958 | 77 | 155 | 6.0 | 9.0 | 0.00 | 0.00 | 0.00 | 51 | 1011.0 |
| 20260505211940 | 77 | 155 | 3.0 | 8.0 | 0.00 | 0.00 | 0.00 | 51 | 1011.0 |
| 20260505210926 | 77 | 155 | 3.0 | 8.0 | 0.00 | 0.00 | 0.00 | 54 | 1011.1 |
| 20260505205932 | 77 | 155 | 3.0 | 9.0 | 0.00 | 0.00 | 0.00 | 52 | 1011.2 |
| 20260505204935 | 76 | 155 | 0.0 | 6.0 | 0.00 | 0.00 | 0.00 | 57 | 1011.1 |
| 20260505203938 | 76 | 155 | 1.0 | 6.0 | 0.00 | 0.00 | 0.00 | 57 | 1011.1 |
| 20260505202944 | 76 | 155 | 1.0 | 8.0 | 0.00 | 0.00 | 0.00 | 56 | 1011.1 |
| 20260505201945 | 76 | 155 | 4.0 | 10.0 | 0.00 | 0.00 | 0.00 | 52 | 1011.2 |
| 20260505201006 | 76 | 155 | 4.0 | 10.0 | 0.00 | 0.00 | 0.00 | 55 | 1011.2 |
| 20260505195926 | 76 | 155 | 0.0 | 0.0 | 0.00 | 0.00 | 0.00 | 53 | 1011.2 |
| 20260505194949 | 75 | 155 | 0.0 | 10.0 | 0.00 | 0.00 | 0.00 | 56 | 1011.2 |
| 20260505193933 | 74 | 155 | 2.0 | 10.0 | 0.00 | 0.00 | 0.00 | 55 | 1011.2 |
| 20260505192936 | 74 | 155 | 5.0 | 11.0 | 0.00 | 0.00 | 0.00 | 53 | 1011.3 |
| 20260505191942 | 73 | 155 | 0.0 | 9.0 | 0.00 | 0.00 | 0.00 | 53 | 1011.3 |
| 20260505190944 | 73 | 155 | 5.0 | 11.0 | 0.00 | 0.00 | 0.00 | 55 | 1011.4 |
| 20260505185929 | 73 | 155 | 4.0 | 10.0 | 0.00 | 0.00 | 0.00 | 56 | 1011.5 |
| 20260505184931 | 73 | 155 | 3.0 | 10.0 | 0.00 | 0.00 | 0.00 | 58 | 1011.4 |
| 20260505183934 | 72 | 155 | 4.0 | 11.0 | 0.00 | 0.00 | 0.00 | 57 | 1011.5 |
| 20260505182937 | 72 | 155 | 0.0 | 10.0 | 0.00 | 0.00 | 0.00 | 61 | 1011.5 |
| 20260505181944 | 71 | 155 | 3.0 | 8.0 | 0.00 | 0.00 | 0.00 | 56 | 1011.6 |
| 20260505180926 | 71 | 155 | 7.0 | 12.0 | 0.00 | 0.00 | 0.00 | 55 | 1011.6 |
| 20260505175951 | 70 | 156 | 4.0 | 10.0 | 0.00 | 0.00 | 0.00 | 59 | 1011.6 |
| 20260505174933 | 70 | 156 | 2.0 | 10.0 | 0.00 | 0.00 | 0.00 | 57 | 1011.5 |
| 20260505173955 | 70 | 156 | 6.0 | 11.0 | 0.00 | 0.00 | 0.00 | 60 | 1011.5 |
| 20260505172939 | 69 | 156 | 3.0 | 16.0 | 0.00 | 0.00 | 0.00 | 61 | 1011.4 |
| 20260505171940 | 69 | 156 | 9.0 | 15.0 | 0.00 | 0.00 | 0.00 | 59 | 1011.4 |
| 20260505170941 | 68 | 159 | 8.0 | 14.0 | 0.00 | 0.00 | 0.00 | 59 | 1011.3 |
| 20260505170002 | 68 | 163 | 5.0 | 16.0 | 0.00 | 0.00 | 0.00 | 61 | 1011.3 |
| 20260505164940 | 68 | 171 | 6.0 | 14.0 | 0.00 | 0.00 | 0.00 | 61 | 1011.3 |
| 20260505163942 | 68 | 171 | 5.0 | 12.0 | 0.00 | 0.00 | 0.00 | 61 | 1011.2 |
| 20260505162944 | 67 | 175 | 6.0 | 13.0 | 0.00 | 0.00 | 0.00 | 61 | 1011.1 |
| 20260505161927 | 67 | 175 | 7.0 | 14.0 | 0.00 | 0.00 | 0.00 | 60 | 1011.1 |
| 20260505160933 | 67 | 184 | 3.0 | 12.0 | 0.00 | 0.00 | 0.00 | 65 | 1011.1 |
| 20260505152929 | 65 | 207 | 6.0 | 11.0 | 0.00 | 0.00 | 0.00 | 63 | 1011.0 |
| 20260505151936 | 63 | 217 | 5.0 | 10.0 | 0.00 | 0.00 | 0.00 | 67 | 1010.9 |
| 20260505150940 | 62 | 222 | 2.0 | 6.0 | 0.00 | 0.00 | 0.00 | 67 | 1010.9 |
| 20260505124937 | 55 | 222 | 0.0 | 4.0 | 0.00 | 0.00 | 0.00 | 70 | 1009.6 |
| 20260505123939 | 55 | 222 | 0.0 | 0.0 | 0.00 | 0.00 | 0.00 | 72 | 1009.6 |
| 20260505122943 | 55 | 222 | 0.0 | 0.0 | 0.00 | 0.00 | 0.00 | 71 | 1009.6 |
| 20260505121931 | 55 | 222 | 0.0 | 0.0 | 0.00 | 0.00 | 0.00 | 70 | 1009.5 |
| 20260505120934 | 55 | 222 | 0.0 | 0.0 | 0.00 | 0.00 | 0.00 | 69 | 1009.4 |
| 20260505115936 | 56 | 222 | 0.0 | 0.0 | 0.00 | 0.00 | 0.00 | 69 | 1009.3 |
| 20260505114939 | 56 | 222 | 0.0 | 0.0 | 0.00 | 0.00 | 0.00 | 69 | 1009.1 |
| 20260505112942 | 56 | 222 | 0.0 | 0.0 | 0.00 | 0.00 | 0.00 | 66 | 1009.0 |
| 20260505111943 | 57 | 222 | 0.0 | 0.0 | 0.00 | 0.00 | 0.00 | 67 | 1008.9 |
| 20260505110931 | 57 | 222 | 0.0 | 2.0 | 0.00 | 0.00 | 0.00 | 65 | 1008.8 |
| 20260505101942 | 58 | 222 | 0.0 | 0.0 | 0.00 | 0.00 | 0.00 | 66 | 1008.3 |
| 20260505100945 | 58 | 222 | 0.0 | 0.0 | 0.00 | 0.00 | 0.00 | 65 | 1008.3 |
| 20260505095931 | 58 | 222 | 0.0 | 4.0 | 0.00 | 0.00 | 0.00 | 63 | 1008.2 |
| 20260505094954 | 59 | 222 | 2.0 | 6.0 | 0.00 | 0.00 | 0.00 | 62 | 1008.2 |
| 20260505092932 | 60 | 222 | 0.0 | 0.0 | 0.00 | 0.00 | 0.00 | 64 | 1008.0 |
| 20260505091933 | 60 | 222 | 0.0 | 0.0 | 0.00 | 0.00 | 0.00 | 63 | 1008.1 |
| 20260505090940 | 60 | 222 | 0.0 | 0.0 | 0.00 | 0.00 | 0.00 | 61 | 1008.1 |
| 20260505085941 | 59 | 222 | 0.0 | 0.0 | 0.00 | 0.00 | 0.00 | 61 | 1008.0 |
| 20260505084927 | 59 | 222 | 0.0 | 0.0 | 0.00 | 0.00 | 0.00 | 62 | 1007.9 |
| 20260505083934 | 59 | 222 | 0.0 | 0.0 | 0.00 | 0.00 | 0.00 | 64 | 1007.9 |
| 20260505082939 | 59 | 222 | 0.0 | 0.0 | 0.00 | 0.00 | 0.00 | 64 | 1007.9 |
| 20260505081941 | 59 | 222 | 0.0 | 0.0 | 0.00 | 0.00 | 0.00 | 64 | 1007.8 |
| 20260505080942 | 60 | 222 | 0.0 | 0.0 | 0.00 | 0.00 | 0.00 | 64 | 1007.7 |
| 20260505075941 | 60 | 222 | 0.0 | 0.0 | 0.00 | 0.00 | 0.00 | 64 | 1007.6 |
| 20260505074944 | 60 | 222 | 0.0 | 0.0 | 0.00 | 0.00 | 0.00 | 63 | 1007.6 |
| 20260505073942 | 61 | 222 | 0.0 | 0.0 | 0.00 | 0.00 | 0.00 | 61 | 1007.6 |
| 20260505072944 | 61 | 222 | 0.0 | 9.0 | 0.00 | 0.00 | 0.00 | 61 | 1007.5 |
| 20260505071931 | 63 | 222 | 0.0 | 0.0 | 0.00 | 0.00 | 0.00 | 58 | 1007.1 |
| 20260505070933 | 63 | 223 | 0.0 | 0.0 | 0.00 | 0.00 | 0.00 | 58 | 1007.0 |
| 20260505065937 | 63 | 222 | 0.0 | 0.0 | 0.00 | 0.00 | 0.00 | 58 | 1006.8 |
| 20260505064943 | 63 | 223 | 1.0 | 8.0 | 0.00 | 0.00 | 0.00 | 57 | 1006.6 |
| 20260505063928 | 64 | 223 | 2.0 | 8.0 | 0.00 | 0.00 | 0.00 | 57 | 1006.7 |
| 20260505062931 | 64 | 223 | 2.0 | 9.0 | 0.00 | 0.00 | 0.00 | 57 | 1006.6 |
| 20260505061958 | 64 | 223 | 3.0 | 8.0 | 0.00 | 0.00 | 0.00 | 57 | 1006.6 |
| 20260505061002 | 64 | 222 | 4.0 | 9.0 | 0.00 | 0.00 | 0.00 | 57 | 1006.5 |
| 20260505054937 | 65 | 222 | 5.0 | 9.0 | 0.00 | 0.00 | 0.00 | 56 | 1006.5 |